Regional Weather Roundup
Issued by NWS Cleveland, OH

Home | Current Version | Previous Version | Graphics & Text | Print | Product List | Glossary On
Versions: 1 2 3 4 5 6 7 8 9 10 11 12 13 14 15 16 17 18 19 20 21 22 23 24 25 26 27 28 29 30 31 32 33 34 35 36 37 38 39 40 41 42 43 44 45 46 47 48 49 50
000
ASUS41 KCLE 270802
RWRCLE
OHIO REGIONAL WEATHER ROUNDUP
NATIONAL WEATHER SERVICE CLEVELAND, OH
400 AM EDT THU JUL 27 2017

NOTE: "FAIR" INDICATES FEW OR NO CLOUDS BELOW 12,000 FEET WITH NO
SIGNIFICANT WEATHER AND/OR OBSTRUCTIONS TO VISIBILITY.

OHZ001>008-015>018-024>027-034-035-043-044-270900-
   NORTHWEST OHIO

CITY           SKY/WX    TMP DP  RH WIND       PRES   REMARKS
DEFIANCE       PTCLDY    69  64  84 CALM      29.95F
FINDLAY        MOCLDY    68  62  81 S6        29.97S
TOLEDO EXPRESS PTCLDY    66  66 100 CALM      29.97S
TOLEDO EXEC    CLOUDY    68  65  90 CALM      29.98F
LIMA           CLOUDY    68  64  87 S5        29.98F
$$

OHZ009>014-019>023-028>033-038-089-270900-
   NORTHEAST OHIO

CITY           SKY/WX    TMP DP  RH WIND       PRES   REMARKS
CLE-HOPKINS    MOCLDY    67  63  87 S3        30.00F
CLE-LAKEFRONT  CLEAR     69  63  81 SE5       29.97F
CUY CO. ARPT   NOT AVBL
LORAIN-ELYRIA  CLOUDY    63  58  83 CALM      29.99F
ASHTABULA      CLOUDY    65  64  97 CALM      30.00F
AKRON-CANTON   CLOUDY    67  62  84 S5        30.00F
WOOSTER        CLOUDY    63  62  97 CALM      30.01F
MANSFIELD      PTCLDY    65  63  93 S3        30.00F
YOUNGSTOWN     CLOUDY    64  62  93 SE3       30.01S
$$

OHZ042-051>053-060>062-070>072-077>081-270900-
  SOUTHWEST OHIO

CITY           SKY/WX    TMP DP  RH WIND       PRES   REMARKS
CINC-COVINGTON CLOUDY    74  70  87 CALM      29.96F
CINC-LUNKEN    MOCLDY    71  71 100 CALM      29.96F
HAMILTON       MOCLDY    72  70  93 CALM      29.97F
DAYTON         CLOUDY    70  64  81 SE3       29.98F
WRIGHT-PAT AFB CLOUDY    70  66  89 CALM      29.97F
DAYTON GENERAL CLOUDY    71  65  81 S6        29.97F
WILMINGTON     MOCLDY    70  65  84 SE3       29.98F
$$

OHZ036-037-039>041-045>050-054>059-063>069-073>076-082>088-270900-
  CENTRAL AND SOUTHEAST OHIO

CITY           SKY/WX    TMP DP  RH WIND       PRES   REMARKS
COLUMBUS       CLOUDY    70  64  81 CALM      29.98F
OSU AIRPORT    CLOUDY    70  65  84 SE3       29.98F
BOLTON FIELD   CLOUDY    64  64  97 CALM      29.99F
RICKENBACK AFB CLOUDY    65  64  98 CALM      29.98F
NEWARK         FOG       64  62  93 CALM      29.99F VSB 1
MARION         CLOUDY    66  61  84 S3        30.00S
LANCASTER      PTCLDY    63  63 100 S3        30.00S
ZANESVILLE     CLOUDY    64  62  93 SE3       30.00F
NEW PHILLY     NOT AVBL
$$




USA.gov is the U.S. government's official web portal to all federal, state and local government web resources and services.